GW3299 Weather Reports


time (UTC)temp
C
wind
direction
speed
KPH
gust
KPH
rain 1hr
cm
rain 24hr
cm
rain mn
cm
humidity
%
barometer
mb
20260505162850 14 2 1.6 1.6 0.43 3.51 3.51 97 1025.4
20260505162345 14 254 0.0 0.0 0.18 3.43 3.43 97 1024.8
20260505161843 14 180 0.0 0.0 0.18 3.43 3.43 97 1025.0
20260505161339 14 306 0.0 0.0 0.00 3.40 3.40 97 1024.9
20260505160836 14 353 0.0 0.0 0.30 3.40 3.40 97 1024.7
20260505160329 13 285 0.0 0.0 0.43 3.40 3.40 97 1024.6
20260505153302 13 186 0.0 0.0 0.00 3.30 3.30 97 1024.6
20260505152759 14 255 0.0 0.0 0.00 3.30 3.30 97 1024.2
20260505152255 13 208 0.0 0.0 0.00 3.30 3.30 97 1024.3
20260505151750 13 69 1.6 1.6 0.00 3.30 3.30 97 1024.3
20260505151248 13 156 1.6 1.6 0.00 3.30 3.30 97 1024.5
20260505150744 13 244 0.0 1.6 0.00 3.30 3.30 97 1024.6
20260505150241 13 39 0.0 1.6 0.00 3.30 3.30 97 1024.8
20260505140206 13 340 3.2 6.4 0.00 3.17 3.17 96 1026.2
20260505130130 13 348 6.4 16.1 0.61 2.72 2.72 96 1027.2
20260505124619 14 25 11.3 12.9 0.79 2.59 2.59 96 1026.7
20260505124116 14 224 4.8 4.8 0.79 2.54 2.54 96 1026.2
20260505123612 14 50 4.8 6.4 2.69 2.46 2.46 95 1026.0
20260505123109 14 144 9.7 12.9 4.37 2.41 2.41 95 1025.5
20260505122605 15 210 6.4 9.7 3.84 2.01 2.01 94 1026.0
20260505122102 16 101 9.7 16.1 1.37 1.60 1.60 90 1026.0
20260505121559 17 14 14.5 17.7 1.19 1.37 1.37 88 1024.6
20260505121056 17 152 4.8 6.4 1.19 1.37 1.37 87 1024.1
20260505120552 18 325 9.7 11.3 0.13 1.19 1.19 82 1024.8
20260505120048 18 329 4.8 6.4 0.00 1.17 1.17 82 1024.6
20260505115542 18 13 6.4 6.4 0.00 1.17 1.17 80 1024.7
20260505115040 19 44 8.0 11.3 0.00 1.17 1.17 78 1024.9
20260505114537 19 9 8.0 11.3 0.00 1.17 1.17 77 1025.3
20260505114033 20 94 11.3 14.5 0.00 1.17 1.17 74 1025.2
20260505113530 20 23 11.3 12.9 0.00 1.17 1.17 72 1025.3
20260505113026 20 31 9.7 12.9 0.00 1.17 1.17 70 1024.9
20260505112522 21 24 11.3 14.5 0.00 1.17 1.17 68 1024.8
20260505112020 21 330 9.7 12.9 0.00 1.17 1.17 68 1024.7
20260505111514 21 344 9.7 12.9 0.00 1.17 1.17 68 1024.8
20260505111011 21 13 4.8 6.4 0.00 1.17 1.17 68 1025.0
20260505110508 21 36 8.0 9.7 0.00 1.17 1.17 68 1025.4
20260505101939 20 2 11.3 12.9 0.00 1.17 1.17 68 1026.7
20260505101432 20 350 11.3 16.1 0.00 1.17 1.17 68 1027.2
20260505100928 20 38 11.3 16.1 0.00 1.17 1.17 69 1027.1
20260505100426 21 20 20.9 27.4 0.00 1.17 1.17 68 1027.2
20260505095921 21 355 11.3 14.5 0.00 1.17 1.17 68 1027.4
20260505095419 21 9 14.5 14.5 0.00 1.17 1.17 68 1027.2
20260505094914 20 28 12.9 17.7 0.00 1.17 1.17 68 1027.2
20260505094412 20 14 14.5 16.1 0.00 1.17 1.17 69 1027.7
20260505093908 21 9 12.9 14.5 0.00 1.17 1.17 69 1027.8
20260505093405 21 17 16.1 22.5 0.00 1.17 1.17 67 1027.7
20260505092902 21 347 16.1 20.9 0.00 1.17 1.17 67 1027.8
20260505092400 21 46 14.5 16.1 0.00 1.17 1.17 68 1027.9
20260505091857 21 21 19.3 22.5 0.00 1.17 1.17 67 1027.9
20260505091355 21 19 16.1 17.7 0.00 1.17 1.17 67 1028.2
20260505090853 21 38 12.9 22.5 0.00 1.17 1.17 69 1027.9
20260505090351 20 0 12.9 14.5 0.00 1.17 1.17 69 1028.1
20260505085848 20 1 16.1 22.5 0.00 1.17 1.17 70 1028.4
20260505085345 21 21 9.7 14.5 0.00 1.17 1.17 70 1028.3
20260505084843 20 346 9.7 14.5 0.00 1.17 1.17 71 1028.5
20260505084341 20 331 8.0 11.3 0.00 1.17 1.17 72 1028.6
20260505083838 20 137 4.8 6.4 0.00 1.17 1.17 73 1028.6
20260505083336 20 63 3.2 4.8 0.00 1.17 1.17 73 1028.6
20260505082832 19 40 4.8 6.4 0.00 1.17 1.17 75 1028.9
20260505082328 18 26 11.3 16.1 0.00 1.17 1.17 76 1028.9
20260505081825 18 8 4.8 4.8 0.00 1.17 1.17 77 1028.9
20260505081322 18 15 9.7 11.3 0.00 1.17 1.17 80 1029.0
20260505080819 17 136 8.0 12.9 0.00 1.17 1.17 83 1029.0
20260505080314 17 77 3.2 4.8 0.00 1.17 1.17 86 1029.0
20260505075810 16 32 3.2 4.8 0.18 1.17 1.17 88 1029.3
20260505075307 16 0 8.0 12.9 0.18 1.17 1.17 86 1029.1
20260505074805 17 24 12.9 16.1 0.00 1.14 1.14 81 1029.3
20260505074302 18 30 9.7 11.3 0.00 1.14 1.14 77 1029.4
20260505073759 18 85 4.8 6.4 0.00 1.14 1.14 77 1029.4
20260505073257 18 9 4.8 9.7 0.00 1.14 1.14 78 1029.9
20260505072754 17 31 3.2 4.8 0.00 1.14 1.14 80 1030.0
20260505072250 17 332 8.0 11.3 0.00 1.14 1.14 79 1029.8
20260505071745 17 359 8.0 11.3 0.00 1.14 1.14 81 1030.0
20260505071242 16 49 3.2 4.8 0.00 1.14 1.14 84 1029.9
20260505070740 17 132 1.6 1.6 0.00 1.14 1.14 83 1029.9
20260505070236 16 17 3.2 3.2 0.00 1.14 1.14 83 1029.8
20260505065732 16 40 8.0 11.3 0.00 1.14 1.14 83 1029.9
20260505065229 16 359 6.4 9.7 0.00 1.14 1.14 86 1030.1
20260505064726 16 19 8.0 9.7 0.00 1.14 1.14 88 1030.0
20260505064224 16 355 3.2 3.2 0.00 1.14 1.14 91 1030.3
20260505063721 15 26 3.2 3.2 0.00 1.14 1.14 92 1030.3
20260505063217 15 22 4.8 4.8 0.00 1.14 1.14 93 1030.1
20260505062713 15 27 1.6 3.2 0.00 1.14 1.14 93 1029.9
20260505062211 15 29 1.6 3.2 0.00 1.14 1.14 94 1030.1
20260505061708 15 330 3.2 4.8 0.00 1.14 1.14 96 1030.0
20260505061206 15 47 0.0 0.0 0.00 1.14 1.14 96 1030.0
20260505060703 15 308 1.6 1.6 0.00 1.14 1.14 96 1029.9
20260505060200 15 213 0.0 0.0 0.00 1.14 1.14 97 1029.9
20260505055655 15 186 0.0 0.0 0.00 1.14 1.14 96 1029.9
20260505055152 14 150 0.0 0.0 0.00 1.14 1.14 96 1029.8
20260505054649 14 190 0.0 0.0 0.00 1.14 1.14 97 1029.8
20260505054147 14 187 0.0 0.0 0.00 1.14 1.14 97 1029.8
20260505053645 13 190 0.0 0.0 0.00 1.14 1.14 97 1029.7
20260505053141 13 211 0.0 0.0 0.00 1.14 1.14 97 1029.9
20260505052638 13 208 0.0 0.0 0.00 1.14 1.14 97 1029.8
20260505052135 13 225 0.0 0.0 0.00 1.14 1.14 97 1029.9
20260505051632 14 191 0.0 0.0 0.00 1.14 1.14 97 1029.9
20260505051130 13 190 0.0 0.0 0.00 1.14 1.14 97 1029.7
20260505050628 13 203 0.0 0.0 0.00 1.14 1.14 97 1029.8
20260505050126 13 193 0.0 0.0 0.00 1.14 1.14 97 1029.6
20260505041556 13 216 0.0 0.0 0.00 1.12 1.12 97 1030.0
20260505041053 13 257 0.0 0.0 0.00 1.12 1.12 97 1030.1
20260505040550 13 274 0.0 0.0 0.00 1.12 1.12 97 1030.5
20260505040047 13 301 0.0 1.6 0.00 1.12 1.12 97 1030.1
20260505035543 13 350 3.2 4.8 0.00 1.12 1.12 97 1030.3
20260505035040 13 36 1.6 3.2 0.18 1.12 1.12 97 1030.3
20260505034536 13 320 1.6 3.2 0.18 1.12 1.12 97 1029.9
20260505034033 13 234 0.0 0.0 0.00 1.09 1.09 97 1029.8
20260505033530 13 108 0.0 0.0 0.00 1.09 1.09 96 1029.7
20260505033029 13 32 1.6 4.8 0.00 1.09 1.09 97 1029.9
20260505032526 13 45 3.2 4.8 0.00 1.09 1.09 96 1029.9
20260505032022 13 123 0.0 0.0 0.00 1.09 1.09 96 1029.9
20260505031520 13 356 4.8 4.8 0.00 1.09 1.09 96 1029.8
20260505031016 13 12 0.0 1.6 0.13 1.09 1.09 96 1029.9
20260505030513 13 12 0.0 0.0 0.30 1.09 1.09 96 1029.8
20260505030009 13 254 0.0 0.0 0.00 1.04 1.04 96 1029.8
20260505025505 13 316 0.0 0.0 0.30 1.04 1.04 96 1029.9
20260505025004 13 256 0.0 0.0 0.30 1.04 1.04 96 1030.1
20260505024500 13 262 0.0 0.0 0.00 0.99 0.99 96 1029.9
20260505023958 13 241 0.0 0.0 0.00 0.99 0.99 96 1029.8
20260505023454 13 222 0.0 0.0 0.18 0.99 0.99 96 1029.7
20260505022952 13 211 0.0 0.0 0.18 0.99 0.99 96 1029.4
20260505022449 13 222 0.0 0.0 0.13 0.97 0.97 96 1029.6
20260505021947 13 80 0.0 1.6 0.43 0.97 0.97 96 1029.9
20260505021443 13 342 6.4 6.4 0.48 0.94 0.94 96 1030.4
20260505020939 13 336 6.4 6.4 0.30 0.89 0.89 96 1030.5
20260505020434 13 332 6.4 9.7 0.43 0.86 0.86 96 1031.1
20260505015931 13 337 12.9 14.5 0.48 0.84 0.84 96 1030.9
20260505015428 13 226 0.0 1.6 0.48 0.79 0.79 96 1031.2
20260505014926 13 0 6.4 6.4 0.43 0.76 0.76 96 1031.8
20260505014422 13 324 8.0 11.3 0.13 0.71 0.71 96 1031.5
20260505013919 13 314 1.6 4.8 0.18 0.69 0.69 95 1031.4
20260505013416 13 182 4.8 6.4 0.18 0.69 0.69 95 1031.5
20260505012914 13 307 1.6 3.2 0.18 0.66 0.66 95 1031.2
20260505012412 13 332 6.4 14.5 0.30 0.66 0.66 95 1031.5
20260505011908 13 342 6.4 9.7 1.37 0.66 0.66 95 1031.6
20260505011405 13 290 4.8 11.3 3.66 0.61 0.61 94 1031.5
20260505010901 13 9 4.8 4.8 1.98 0.33 0.33 93 1031.6
20260505010357 16 40 11.3 20.9 0.00 0.00 0.00 85 1031.3
20260505005853 16 317 3.2 3.2 0.00 0.00 0.00 80 1030.3
20260505005350 15 290 0.0 0.0 0.00 0.00 0.00 84 1029.9
20260505004848 14 223 0.0 0.0 0.00 0.00 0.00 88 1029.9
20260505004344 14 223 0.0 0.0 0.00 0.00 0.00 88 1029.7
20260505003841 14 223 0.0 0.0 0.00 0.00 0.00 88 1030.0
20260505003339 14 223 0.0 0.0 0.00 0.00 0.00 88 1029.9
20260505002834 14 223 0.0 0.0 0.00 0.00 0.00 87 1030.1
20260505002331 15 221 0.0 1.6 0.00 0.00 0.00 87 1030.0
20260505001830 15 233 0.0 0.0 0.00 0.00 0.00 87 1030.0
20260505001326 14 233 0.0 0.0 0.00 0.00 0.00 87 1030.0
20260505000824 15 233 0.0 0.0 0.00 0.00 0.00 87 1030.3
20260505000321 15 233 0.0 0.0 0.00 0.00 0.00 86 1030.0
20260504235818 15 235 0.0 0.0 0.00 0.00 0.00 85 1030.0
20260504235315 15 22 0.0 0.0 0.00 0.00 0.00 83 1030.1
20260504234811 16 23 0.0 0.0 0.00 0.00 0.00 82 1030.3
20260504234309 16 23 0.0 0.0 0.00 0.00 0.00 82 1030.3
20260504233805 16 23 0.0 0.0 0.00 0.00 0.00 81 1030.5
20260504233301 16 23 0.0 0.0 0.00 0.00 0.00 81 1030.5
20260504232758 16 23 0.0 0.0 0.00 0.00 0.00 81 1030.5
20260504232255 16 23 0.0 0.0 0.00 0.00 0.00 80 1030.4
20260504231752 16 23 0.0 0.0 0.00 0.00 0.00 80 1030.4
20260504231248 16 23 0.0 0.0 0.00 0.00 0.00 79 1030.3
20260504230744 16 23 0.0 0.0 0.00 0.00 0.00 79 1030.6
20260504230243 16 20 0.0 1.6 0.00 0.00 0.00 79 1030.5
20260504225741 16 352 0.0 1.6 0.00 0.00 0.00 79 1030.7
20260504225237 16 24 1.6 1.6 0.00 0.00 0.00 79 1030.6
20260504224735 17 17 0.0 1.6 0.00 0.00 0.00 79 1030.7
20260504224232 17 13 1.6 3.2 0.00 0.00 0.00 78 1030.7
20260504223728 17 22 0.0 1.6 0.00 0.00 0.00 78 1030.6
20260504223223 17 19 3.2 3.2 0.00 0.00 0.00 78 1030.9
20260504222721 17 80 1.6 3.2 0.00 0.00 0.00 77 1030.9
20260504222218 17 36 3.2 4.8 0.00 0.00 0.00 77 1031.1
20260504221715 17 21 4.8 4.8 0.00 0.00 0.00 77 1031.2
20260504221212 17 33 1.6 3.2 0.00 0.00 0.00 77 1031.2
20260504220708 17 28 3.2 4.8 0.00 0.00 0.00 77 1031.1
20260504220206 17 46 4.8 4.8 0.00 0.00 0.00 78 1031.3
20260504215701 17 22 3.2 3.2 0.00 0.00 0.00 78 1031.2
20260504214250 17 13 3.2 3.2 0.00 0.00 0.00 75 1031.4
20260504213747 17 13 3.2 3.2 0.00 0.00 0.00 75 1031.4
20260504213243 17 6 3.2 4.8 0.00 0.00 0.00 75 1031.6
20260504212741 17 273 0.0 0.0 0.00 0.00 0.00 75 1031.6
20260504212237 17 315 1.6 1.6 0.00 0.00 0.00 76 1031.9
20260504211734 17 303 1.6 1.6 0.00 0.00 0.00 76 1031.8
20260504211225 17 5 1.6 3.2 0.00 0.00 0.00 77 1031.9
20260504210723 17 282 0.0 1.6 0.00 0.00 0.00 77 1032.0
20260504210220 17 309 1.6 3.2 0.00 0.00 0.00 77 1031.9
20260504205717 17 334 3.2 3.2 0.00 0.00 0.00 77 1031.9
20260504205214 17 353 3.2 4.8 0.00 0.00 0.00 78 1031.8
20260504204712 17 353 3.2 4.8 0.00 0.00 0.00 78 1031.9
20260504204211 17 308 3.2 3.2 0.00 0.00 0.00 78 1032.1
20260504203709 17 289 3.2 3.2 0.00 0.00 0.00 78 1032.2
20260504203207 17 331 4.8 4.8 0.00 0.00 0.00 77 1032.3
20260504202706 17 324 3.2 4.8 0.00 0.00 0.00 77 1032.3
20260504202204 17 2 3.2 3.2 0.00 0.00 0.00 77 1032.6
20260504201701 18 312 3.2 3.2 0.00 0.00 0.00 76 1032.3
20260504201158 18 356 3.2 4.8 0.00 0.00 0.00 75 1032.5
20260504200655 17 341 4.8 4.8 0.00 0.00 0.00 75 1032.3
20260504200152 17 28 3.2 4.8 0.00 0.00 0.00 76 1032.3
20260504195648 17 9 3.2 3.2 0.00 0.00 0.00 78 1032.6
20260504195144 17 359 3.2 4.8 0.00 0.00 0.00 78 1032.7
20260504194641 17 322 3.2 4.8 0.00 0.00 0.00 78 1032.8
20260504194137 17 330 3.2 3.2 0.00 0.00 0.00 78 1032.6
20260504193633 17 337 3.2 3.2 0.00 0.00 0.00 77 1032.5
20260504193132 17 255 1.6 1.6 0.00 0.00 0.00 77 1032.5
20260504192629 17 332 3.2 3.2 0.00 0.00 0.00 77 1032.6
20260504192127 17 241 0.0 0.0 0.00 0.00 0.00 77 1032.5
20260504191625 17 306 1.6 1.6 0.00 0.00 0.00 78 1032.6
20260504191121 17 340 1.6 1.6 0.00 0.00 0.00 77 1032.5
20260504190617 17 18 3.2 4.8 0.00 0.00 0.00 77 1032.2
20260504190114 17 42 3.2 3.2 0.00 0.00 0.00 78 1032.5
20260504185611 16 44 1.6 1.6 0.00 0.00 0.00 79 1032.3
20260504185107 16 355 1.6 1.6 0.00 0.00 0.00 80 1032.3
20260504184603 17 36 3.2 6.4 0.00 0.00 0.00 78 1032.5
20260504184058 17 79 1.6 1.6 0.00 0.00 0.00 78 1032.5
20260504183556 17 260 0.0 0.0 0.00 0.00 0.00 79 1032.3
20260504183054 17 249 0.0 0.0 0.00 0.00 0.00 79 1032.6
20260504182550 17 284 0.0 0.0 0.00 0.00 0.00 79 1032.6
20260504182048 17 157 0.0 0.0 0.00 0.00 0.00 79 1032.5
20260504181545 17 253 0.0 0.0 0.00 0.00 0.00 80 1032.5
20260504181043 17 254 0.0 0.0 0.00 0.00 0.00 80 1032.6
20260504180541 17 253 0.0 0.0 0.00 0.00 0.00 78 1032.6
20260504180040 17 254 0.0 0.0 0.00 0.00 0.00 76 1032.6
20260504175537 17 254 0.0 0.0 0.00 0.00 0.00 76 1032.6
20260504175034 17 254 0.0 0.0 0.00 0.00 0.00 76 1032.3
20260504174532 18 254 0.0 0.0 0.00 0.00 0.00 75 1032.3
20260504174028 18 254 0.0 0.0 0.00 0.00 0.00 73 1032.2
20260504173525 18 254 0.0 0.0 0.00 0.00 0.00 73 1032.3
20260504173022 18 254 0.0 0.0 0.00 0.00 0.00 74 1032.2
20260504172519 18 254 0.0 0.0 0.00 0.00 0.00 73 1032.5
20260504172015 18 255 0.0 0.0 0.00 0.00 0.00 73 1032.5
20260504171512 18 255 0.0 0.0 0.00 0.00 0.00 73 1032.2
20260504171009 18 254 0.0 0.0 0.00 0.00 0.00 74 1032.3
20260504170505 18 254 0.0 0.0 0.00 0.00 0.00 72 1032.3